| time (UTC) | temp C | wind direction | speed KPH | gust KPH | rain 1hr cm | rain 24hr cm | rain mn cm | humidity % | barometer mb |
| 20260507054230 | 10 | 264 | 0.0 | 0.0 | 0.00 | 0.00 | 0.00 | 84 | 1014.1 |
| 20260507053728 | 10 | 263 | 0.0 | 0.0 | 0.00 | 0.00 | 0.00 | 83 | 1014.2 |
| 20260507053225 | 10 | 258 | 0.0 | 0.0 | 0.00 | 0.00 | 0.00 | 79 | 1014.2 |
| 20260507052724 | 10 | 252 | 0.0 | 0.0 | 0.00 | 0.00 | 0.00 | 79 | 1014.2 |
| 20260507052220 | 10 | 252 | 0.0 | 0.0 | 0.00 | 0.00 | 0.00 | 78 | 1014.3 |
| 20260507051718 | 11 | 253 | 0.0 | 0.0 | 0.00 | 0.00 | 0.00 | 78 | 1014.2 |
| 20260507051214 | 11 | 248 | 0.0 | 0.0 | 0.00 | 0.00 | 0.00 | 79 | 1014.3 |
| 20260507050711 | 11 | 248 | 0.0 | 0.0 | 0.00 | 0.00 | 0.00 | 78 | 1014.6 |
| 20260507050208 | 11 | 249 | 0.0 | 0.0 | 0.00 | 0.00 | 0.00 | 77 | 1014.6 |
| 20260507045705 | 11 | 255 | 0.0 | 0.0 | 0.00 | 0.00 | 0.00 | 76 | 1014.4 |
| 20260507045201 | 11 | 241 | 0.0 | 0.0 | 0.00 | 0.00 | 0.00 | 76 | 1014.5 |
| 20260507044658 | 11 | 240 | 0.0 | 0.0 | 0.00 | 0.00 | 0.00 | 74 | 1014.5 |
| 20260507044155 | 11 | 260 | 0.0 | 0.0 | 0.00 | 0.00 | 0.00 | 74 | 1014.7 |
| 20260507043651 | 11 | 252 | 0.0 | 0.0 | 0.00 | 0.00 | 0.00 | 74 | 1014.6 |
| 20260507043148 | 11 | 257 | 0.0 | 0.0 | 0.00 | 0.00 | 0.00 | 75 | 1014.3 |
| 20260507042644 | 11 | 257 | 0.0 | 0.0 | 0.00 | 0.00 | 0.00 | 75 | 1014.1 |
| 20260507042139 | 11 | 287 | 1.6 | 1.6 | 0.00 | 0.00 | 0.00 | 75 | 1014.2 |
| 20260507041637 | 11 | 253 | 0.0 | 0.0 | 0.00 | 0.00 | 0.00 | 74 | 1014.2 |
| 20260507041133 | 11 | 252 | 0.0 | 0.0 | 0.00 | 0.00 | 0.00 | 73 | 1014.2 |
| 20260507040630 | 11 | 222 | 0.0 | 0.0 | 0.00 | 0.00 | 0.00 | 72 | 1014.2 |
| 20260507040126 | 11 | 251 | 0.0 | 0.0 | 0.00 | 0.00 | 0.00 | 72 | 1014.3 |
| 20260507035622 | 11 | 234 | 0.0 | 0.0 | 0.00 | 1.91 | 1.91 | 71 | 1014.2 |
| 20260507035118 | 11 | 265 | 0.0 | 0.0 | 0.00 | 1.91 | 1.91 | 73 | 1014.0 |
| 20260507034615 | 11 | 251 | 0.0 | 0.0 | 0.00 | 1.91 | 1.91 | 73 | 1014.2 |
| 20260507034113 | 11 | 255 | 0.0 | 0.0 | 0.00 | 1.91 | 1.91 | 74 | 1014.4 |
| 20260507033611 | 11 | 244 | 1.6 | 3.2 | 0.00 | 1.91 | 1.91 | 75 | 1014.2 |
| 20260507033108 | 11 | 255 | 0.0 | 0.0 | 0.00 | 1.91 | 1.91 | 75 | 1014.1 |
| 20260507032605 | 12 | 257 | 0.0 | 0.0 | 0.00 | 1.91 | 1.91 | 76 | 1014.1 |
| 20260507032056 | 11 | 255 | 0.0 | 0.0 | 0.00 | 1.91 | 1.91 | 75 | 1014.1 |
| 20260507031552 | 12 | 254 | 0.0 | 0.0 | 0.00 | 1.91 | 1.91 | 75 | 1014.2 |
| 20260507031050 | 12 | 254 | 0.0 | 0.0 | 0.00 | 1.91 | 1.91 | 76 | 1014.1 |
| 20260507030546 | 12 | 318 | 1.6 | 1.6 | 0.00 | 1.91 | 1.91 | 75 | 1014.1 |
| 20260507030044 | 12 | 251 | 0.0 | 0.0 | 0.00 | 1.91 | 1.91 | 75 | 1014.3 |
| 20260507025541 | 12 | 249 | 0.0 | 0.0 | 0.00 | 1.91 | 1.91 | 74 | 1014.2 |
| 20260507025038 | 12 | 258 | 0.0 | 0.0 | 0.00 | 1.91 | 1.91 | 73 | 1014.3 |
| 20260507024536 | 12 | 253 | 0.0 | 0.0 | 0.00 | 1.91 | 1.91 | 73 | 1014.1 |
| 20260507024032 | 12 | 250 | 0.0 | 0.0 | 0.00 | 1.91 | 1.91 | 72 | 1014.2 |
| 20260507023528 | 12 | 274 | 0.0 | 0.0 | 0.00 | 1.91 | 1.91 | 72 | 1014.0 |
| 20260507023026 | 12 | 257 | 0.0 | 0.0 | 0.00 | 1.91 | 1.91 | 72 | 1014.0 |
| 20260507022523 | 12 | 255 | 0.0 | 0.0 | 0.00 | 1.91 | 1.91 | 71 | 1013.8 |
| 20260507022018 | 12 | 266 | 1.6 | 1.6 | 0.00 | 1.91 | 1.91 | 71 | 1013.9 |
| 20260507021514 | 12 | 272 | 0.0 | 1.6 | 0.00 | 1.91 | 1.91 | 72 | 1013.6 |
| 20260507021011 | 12 | 290 | 1.6 | 1.6 | 0.00 | 1.91 | 1.91 | 72 | 1013.5 |
| 20260507020508 | 12 | 256 | 0.0 | 0.0 | 0.00 | 1.91 | 1.91 | 71 | 1013.4 |
| 20260507020005 | 12 | 301 | 1.6 | 1.6 | 0.00 | 1.91 | 1.91 | 71 | 1013.3 |
| 20260507015503 | 12 | 286 | 1.6 | 3.2 | 0.00 | 1.91 | 1.91 | 72 | 1013.4 |
| 20260507014955 | 13 | 333 | 1.6 | 1.6 | 0.00 | 1.91 | 1.91 | 71 | 1013.2 |
| 20260507014451 | 13 | 345 | 4.8 | 8.0 | 0.00 | 1.91 | 1.91 | 72 | 1013.3 |
| 20260507013947 | 13 | 328 | 3.2 | 4.8 | 0.00 | 1.91 | 1.91 | 72 | 1013.2 |
| 20260507013444 | 13 | 253 | 1.6 | 3.2 | 0.00 | 1.91 | 1.91 | 72 | 1013.0 |
| 20260507012941 | 13 | 313 | 1.6 | 1.6 | 0.00 | 1.91 | 1.91 | 73 | 1013.0 |
| 20260507012438 | 13 | 346 | 4.8 | 8.0 | 0.00 | 1.91 | 1.91 | 73 | 1013.0 |
| 20260507011934 | 13 | 343 | 3.2 | 3.2 | 0.00 | 1.91 | 1.91 | 73 | 1013.0 |
| 20260507011431 | 13 | 340 | 1.6 | 3.2 | 0.00 | 1.91 | 1.91 | 73 | 1012.9 |
| 20260507010926 | 13 | 274 | 0.0 | 0.0 | 0.00 | 1.91 | 1.91 | 73 | 1012.6 |
| 20260507010421 | 12 | 321 | 4.8 | 4.8 | 0.00 | 1.91 | 1.91 | 78 | 1012.5 |
| 20260507005918 | 13 | 257 | 0.0 | 0.0 | 0.00 | 1.91 | 1.91 | 90 | 1012.6 |
| 20260507005415 | 13 | 251 | 0.0 | 0.0 | 0.00 | 1.91 | 1.91 | 89 | 1012.5 |
| 20260507004912 | 13 | 255 | 0.0 | 0.0 | 0.00 | 1.91 | 1.91 | 88 | 1012.5 |
| 20260507004409 | 13 | 243 | 0.0 | 0.0 | 0.00 | 1.91 | 1.91 | 88 | 1012.4 |
| 20260507003906 | 13 | 243 | 0.0 | 0.0 | 0.00 | 1.91 | 1.91 | 88 | 1012.4 |
| 20260507003401 | 13 | 237 | 0.0 | 0.0 | 0.00 | 1.91 | 1.91 | 89 | 1012.4 |
| 20260507002857 | 13 | 88 | 0.0 | 0.0 | 0.00 | 1.91 | 1.91 | 87 | 1012.0 |
| 20260507002353 | 13 | 286 | 0.0 | 0.0 | 0.00 | 1.91 | 1.91 | 83 | 1012.2 |
| 20260507001850 | 14 | 263 | 0.0 | 0.0 | 0.00 | 1.91 | 1.91 | 84 | 1012.2 |
| 20260507001347 | 13 | 263 | 0.0 | 0.0 | 0.00 | 1.91 | 1.91 | 83 | 1012.2 |
| 20260507000844 | 14 | 284 | 0.0 | 1.6 | 0.00 | 1.91 | 1.91 | 83 | 1011.8 |
| 20260507000339 | 14 | 282 | 0.0 | 0.0 | 0.00 | 1.91 | 1.91 | 83 | 1011.9 |
| 20260506235836 | 14 | 263 | 0.0 | 0.0 | 0.00 | 1.91 | 1.91 | 83 | 1011.9 |
| 20260506235333 | 14 | 264 | 0.0 | 0.0 | 0.00 | 1.91 | 1.91 | 82 | 1012.0 |
| 20260506234829 | 14 | 288 | 0.0 | 0.0 | 0.00 | 1.91 | 1.91 | 82 | 1011.7 |
| 20260506234326 | 13 | 265 | 0.0 | 0.0 | 0.00 | 1.91 | 1.91 | 83 | 1011.9 |
| 20260506233824 | 13 | 265 | 0.0 | 0.0 | 0.00 | 1.91 | 1.91 | 85 | 1011.9 |
| 20260506233319 | 14 | 276 | 0.0 | 0.0 | 0.00 | 1.91 | 1.91 | 88 | 1011.6 |
| 20260506232816 | 14 | 74 | 3.2 | 3.2 | 0.00 | 1.91 | 1.91 | 87 | 1011.6 |
| 20260506232312 | 15 | 318 | 0.0 | 0.0 | 0.00 | 1.91 | 1.91 | 84 | 1012.0 |
| 20260506231809 | 15 | 266 | 0.0 | 0.0 | 0.00 | 1.91 | 1.91 | 84 | 1012.3 |
| 20260506231307 | 15 | 265 | 0.0 | 0.0 | 0.00 | 1.91 | 1.91 | 83 | 1012.3 |
| 20260506230804 | 15 | 272 | 0.0 | 0.0 | 0.00 | 1.91 | 1.91 | 82 | 1012.0 |
| 20260506230300 | 15 | 265 | 0.0 | 0.0 | 0.00 | 1.91 | 1.91 | 79 | 1011.9 |
| 20260506225756 | 15 | 289 | 0.0 | 0.0 | 0.00 | 1.91 | 1.91 | 77 | 1011.9 |
| 20260506225254 | 15 | 281 | 0.0 | 0.0 | 0.00 | 1.91 | 1.91 | 76 | 1012.2 |
| 20260506224751 | 15 | 275 | 0.0 | 1.6 | 0.00 | 1.91 | 1.91 | 75 | 1012.2 |
| 20260506224248 | 15 | 294 | 0.0 | 1.6 | 0.00 | 1.91 | 1.91 | 76 | 1011.9 |
| 20260506223744 | 15 | 294 | 0.0 | 0.0 | 0.00 | 1.91 | 1.91 | 76 | 1012.0 |
| 20260506223239 | 15 | 268 | 0.0 | 0.0 | 0.00 | 1.91 | 1.91 | 75 | 1011.9 |
| 20260506222731 | 15 | 305 | 1.6 | 1.6 | 0.00 | 1.91 | 1.91 | 73 | 1011.6 |
| 20260506222227 | 15 | 250 | 0.0 | 0.0 | 0.00 | 1.91 | 1.91 | 72 | 1011.9 |
| 20260506221725 | 15 | 287 | 0.0 | 0.0 | 0.00 | 1.91 | 1.91 | 72 | 1011.7 |
| 20260506221223 | 15 | 259 | 0.0 | 0.0 | 0.00 | 1.91 | 1.91 | 71 | 1012.2 |
| 20260506220720 | 15 | 270 | 3.2 | 3.2 | 0.00 | 1.91 | 1.91 | 70 | 1012.0 |
| 20260506220214 | 15 | 266 | 0.0 | 1.6 | 0.00 | 1.91 | 1.91 | 73 | 1011.8 |
| 20260506215711 | 16 | 339 | 3.2 | 3.2 | 0.00 | 1.91 | 1.91 | 71 | 1011.7 |
| 20260506215207 | 16 | 25 | 3.2 | 4.8 | 0.00 | 1.91 | 1.91 | 72 | 1011.4 |
| 20260506214704 | 16 | 85 | 4.8 | 4.8 | 0.00 | 1.91 | 1.91 | 72 | 1011.4 |
| 20260506214201 | 16 | 359 | 1.6 | 3.2 | 0.00 | 1.91 | 1.91 | 70 | 1011.3 |
| 20260506213659 | 16 | 259 | 0.0 | 0.0 | 0.00 | 1.91 | 1.91 | 72 | 1011.3 |
| 20260506213156 | 16 | 239 | 0.0 | 1.6 | 0.00 | 1.91 | 1.91 | 72 | 1011.3 |
| 20260506212653 | 16 | 275 | 1.6 | 1.6 | 0.00 | 1.91 | 1.91 | 72 | 1011.7 |
| 20260506212148 | 16 | 316 | 1.6 | 3.2 | 0.00 | 1.91 | 1.91 | 72 | 1011.4 |
| 20260506211644 | 16 | 276 | 1.6 | 1.6 | 0.00 | 1.91 | 1.91 | 73 | 1011.4 |
| 20260506211141 | 16 | 268 | 0.0 | 0.0 | 0.00 | 1.91 | 1.91 | 72 | 1011.6 |
| 20260506210638 | 16 | 336 | 3.2 | 3.2 | 0.00 | 1.91 | 1.91 | 73 | 1011.4 |
| 20260506210135 | 16 | 282 | 1.6 | 1.6 | 0.00 | 1.91 | 1.91 | 74 | 1011.5 |
| 20260506205632 | 16 | 325 | 1.6 | 3.2 | 0.00 | 1.91 | 1.91 | 73 | 1011.5 |
| 20260506205126 | 16 | 261 | 4.8 | 4.8 | 0.00 | 1.91 | 1.91 | 72 | 1011.4 |
| 20260506204625 | 16 | 251 | 4.8 | 4.8 | 0.00 | 1.91 | 1.91 | 72 | 1011.4 |
| 20260506204121 | 16 | 295 | 4.8 | 8.0 | 0.00 | 1.91 | 1.91 | 73 | 1011.4 |
| 20260506203620 | 16 | 268 | 3.2 | 3.2 | 0.00 | 1.91 | 1.91 | 72 | 1011.3 |
| 20260506203116 | 16 | 328 | 4.8 | 4.8 | 0.00 | 1.91 | 1.91 | 72 | 1011.2 |
| 20260506202614 | 16 | 293 | 3.2 | 3.2 | 0.00 | 1.91 | 1.91 | 73 | 1011.2 |
| 20260506202110 | 16 | 249 | 1.6 | 1.6 | 0.00 | 1.91 | 1.91 | 72 | 1011.0 |
| 20260506201607 | 16 | 288 | 3.2 | 3.2 | 0.00 | 1.91 | 1.91 | 72 | 1011.2 |
| 20260506201104 | 16 | 243 | 1.6 | 1.6 | 0.00 | 1.91 | 1.91 | 74 | 1010.9 |
| 20260506200600 | 16 | 348 | 1.6 | 3.2 | 0.00 | 1.91 | 1.91 | 73 | 1010.9 |
| 20260506200057 | 16 | 347 | 3.2 | 3.2 | 0.00 | 1.91 | 1.91 | 73 | 1011.2 |
| 20260506195553 | 16 | 167 | 1.6 | 1.6 | 0.00 | 1.91 | 1.91 | 75 | 1010.9 |
| 20260506195050 | 16 | 315 | 4.8 | 4.8 | 0.00 | 1.91 | 1.91 | 75 | 1011.1 |
| 20260506194548 | 16 | 311 | 3.2 | 4.8 | 0.00 | 1.91 | 1.91 | 74 | 1010.9 |
| 20260506194043 | 16 | 52 | 3.2 | 3.2 | 0.00 | 1.91 | 1.91 | 74 | 1010.9 |
| 20260506193541 | 16 | 281 | 1.6 | 1.6 | 0.00 | 1.91 | 1.91 | 74 | 1011.1 |
| 20260506193039 | 16 | 261 | 0.0 | 1.6 | 0.00 | 1.91 | 1.91 | 73 | 1011.2 |
| 20260506192535 | 16 | 286 | 3.2 | 3.2 | 0.00 | 1.91 | 1.91 | 76 | 1011.0 |
| 20260506192031 | 16 | 273 | 3.2 | 3.2 | 0.00 | 1.91 | 1.91 | 77 | 1011.2 |
| 20260506191528 | 15 | 31 | 0.0 | 1.6 | 0.00 | 1.91 | 1.91 | 78 | 1011.2 |
| 20260506191024 | 15 | 257 | 0.0 | 0.0 | 0.00 | 1.91 | 1.91 | 79 | 1011.1 |
| 20260506190521 | 16 | 16 | 3.2 | 3.2 | 0.00 | 1.91 | 1.91 | 78 | 1011.1 |
| 20260506190019 | 16 | 327 | 3.2 | 3.2 | 0.00 | 1.91 | 1.91 | 78 | 1011.3 |
| 20260506185515 | 15 | 257 | 1.6 | 1.6 | 0.00 | 1.91 | 1.91 | 79 | 1011.1 |
| 20260506185012 | 15 | 338 | 1.6 | 1.6 | 0.00 | 1.91 | 1.91 | 79 | 1011.1 |
| 20260506184509 | 15 | 312 | 3.2 | 3.2 | 0.00 | 1.91 | 1.91 | 80 | 1011.1 |
| 20260506184006 | 15 | 119 | 3.2 | 3.2 | 0.00 | 1.91 | 1.91 | 81 | 1011.2 |
| 20260506183503 | 15 | 343 | 1.6 | 1.6 | 0.00 | 1.91 | 1.91 | 82 | 1011.2 |
| 20260506182959 | 15 | 318 | 1.6 | 1.6 | 0.00 | 1.91 | 1.91 | 80 | 1011.3 |
| 20260506182456 | 15 | 261 | 0.0 | 0.0 | 0.00 | 1.91 | 1.91 | 81 | 1011.2 |
| 20260506181953 | 15 | 263 | 3.2 | 3.2 | 0.00 | 1.91 | 1.91 | 80 | 1010.9 |
| 20260506181451 | 15 | 18 | 3.2 | 3.2 | 0.00 | 1.91 | 1.91 | 82 | 1011.1 |
| 20260506180948 | 15 | 261 | 0.0 | 0.0 | 0.00 | 1.91 | 1.91 | 82 | 1011.2 |
| 20260506180444 | 15 | 3 | 4.8 | 4.8 | 0.00 | 1.91 | 1.91 | 82 | 1011.2 |
| 20260506175941 | 14 | 304 | 4.8 | 4.8 | 0.00 | 1.91 | 1.91 | 82 | 1011.2 |
| 20260506175438 | 15 | 275 | 4.8 | 8.0 | 0.00 | 1.91 | 1.91 | 83 | 1011.4 |
| 20260506174934 | 15 | 238 | 0.0 | 1.6 | 0.00 | 1.91 | 1.91 | 83 | 1011.4 |
| 20260506174432 | 14 | 314 | 3.2 | 3.2 | 0.00 | 1.91 | 1.91 | 82 | 1011.4 |
| 20260506173928 | 15 | 266 | 4.8 | 8.0 | 0.00 | 1.91 | 1.91 | 83 | 1011.6 |
| 20260506173426 | 15 | 288 | 3.2 | 3.2 | 0.00 | 1.91 | 1.91 | 84 | 1011.6 |
| 20260506172923 | 15 | 297 | 3.2 | 3.2 | 0.00 | 1.91 | 1.91 | 84 | 1011.6 |
| 20260506172419 | 15 | 243 | 0.0 | 1.6 | 0.00 | 1.91 | 1.91 | 83 | 1011.7 |
| 20260506171916 | 15 | 262 | 4.8 | 8.0 | 0.00 | 1.91 | 1.91 | 82 | 1011.5 |
| 20260506171414 | 13 | 283 | 0.0 | 1.6 | 0.00 | 1.91 | 1.91 | 86 | 1011.6 |
| 20260506170912 | 13 | 278 | 3.2 | 3.2 | 0.00 | 1.91 | 1.91 | 89 | 1011.6 |
| 20260506170407 | 13 | 51 | 4.8 | 4.8 | 0.00 | 1.91 | 1.91 | 90 | 1011.6 |
| 20260506165901 | 12 | 24 | 4.8 | 8.0 | 0.00 | 1.91 | 1.91 | 90 | 1011.3 |
| 20260506165359 | 12 | 340 | 1.6 | 1.6 | 0.00 | 1.91 | 1.91 | 92 | 1011.6 |
| 20260506164855 | 12 | 259 | 4.8 | 8.0 | 0.00 | 1.91 | 1.91 | 94 | 1011.4 |
| 20260506164351 | 12 | 317 | 3.2 | 3.2 | 0.00 | 1.91 | 1.91 | 97 | 1011.4 |
| 20260506163849 | 11 | 318 | 1.6 | 3.2 | 0.00 | 1.91 | 1.91 | 99 | 1011.6 |
| 20260506163343 | 11 | 303 | 1.6 | 1.6 | 0.00 | 1.91 | 1.91 | 99 | 1011.7 |
| 20260506162839 | 11 | 345 | 3.2 | 3.2 | 0.00 | 1.91 | 1.91 | 99 | 1011.5 |
| 20260506162337 | 11 | 305 | 1.6 | 3.2 | 0.00 | 1.91 | 1.91 | 99 | 1011.7 |
| 20260506161834 | 11 | 255 | 1.6 | 1.6 | 0.00 | 1.91 | 1.91 | 99 | 1011.6 |
| 20260506161331 | 10 | 256 | 1.6 | 3.2 | 0.00 | 1.91 | 1.91 | 99 | 1011.9 |
| 20260506160829 | 10 | 282 | 1.6 | 1.6 | 0.00 | 1.91 | 1.91 | 99 | 1011.7 |
| 20260506160325 | 10 | 229 | 3.2 | 3.2 | 0.00 | 1.91 | 1.91 | 99 | 1011.7 |
| 20260506155824 | 10 | 280 | 3.2 | 3.2 | 0.00 | 1.91 | 1.91 | 99 | 1011.5 |
| 20260506155321 | 11 | 282 | 1.6 | 1.6 | 0.00 | 1.91 | 1.91 | 99 | 1011.5 |
| 20260506153433 | 10 | 252 | 4.8 | 4.8 | 0.00 | 1.91 | 1.91 | 99 | 1010.9 |
| 20260506152930 | 10 | 279 | 0.0 | 1.6 | 0.00 | 1.91 | 1.91 | 99 | 1010.9 |
| 20260506152427 | 10 | 337 | 1.6 | 3.2 | 0.00 | 1.91 | 1.91 | 99 | 1010.9 |
| 20260506151926 | 10 | 297 | 1.6 | 3.2 | 0.00 | 1.91 | 1.91 | 99 | 1010.9 |
| 20260506151422 | 10 | 281 | 1.6 | 3.2 | 0.00 | 1.91 | 1.91 | 99 | 1010.8 |
| 20260506150920 | 10 | 285 | 1.6 | 1.6 | 0.00 | 1.91 | 1.91 | 99 | 1010.4 |
| 20260506150415 | 10 | 306 | 1.6 | 1.6 | 0.00 | 1.91 | 1.91 | 99 | 1010.6 |
| 20260506145913 | 10 | 285 | 1.6 | 3.2 | 0.00 | 1.91 | 1.91 | 99 | 1010.8 |
| 20260506145409 | 10 | 288 | 0.0 | 0.0 | 0.00 | 1.91 | 1.91 | 99 | 1010.4 |
| 20260506144907 | 10 | 259 | 0.0 | 0.0 | 0.00 | 1.91 | 1.91 | 99 | 1010.3 |
| 20260506144402 | 10 | 282 | 3.2 | 3.2 | 0.00 | 1.91 | 1.91 | 99 | 1010.1 |
| 20260506143901 | 10 | 358 | 1.6 | 3.2 | 0.00 | 1.91 | 1.91 | 99 | 1010.0 |
| 20260506143358 | 10 | 257 | 0.0 | 0.0 | 0.00 | 1.91 | 1.91 | 99 | 1010.0 |
| 20260506142856 | 10 | 250 | 1.6 | 3.2 | 0.18 | 1.91 | 1.91 | 99 | 1010.0 |
| 20260506142354 | 10 | 263 | 0.0 | 0.0 | 0.18 | 1.91 | 1.91 | 99 | 1010.0 |
| 20260506141852 | 10 | 292 | 0.0 | 1.6 | 0.00 | 1.88 | 1.88 | 99 | 1010.1 |
| 20260506141350 | 10 | 260 | 0.0 | 0.0 | 0.00 | 1.88 | 1.88 | 99 | 1010.1 |
| 20260506140848 | 10 | 256 | 4.8 | 8.0 | 0.00 | 1.88 | 1.88 | 99 | 1010.1 |
| 20260506140344 | 10 | 261 | 0.0 | 1.6 | 0.00 | 1.88 | 1.88 | 99 | 1010.1 |
| 20260506135841 | 10 | 330 | 4.8 | 4.8 | 0.00 | 1.88 | 1.88 | 99 | 1009.5 |
| 20260506135338 | 10 | 222 | 0.0 | 1.6 | 0.00 | 1.88 | 1.88 | 99 | 1009.5 |
| 20260506134834 | 10 | 323 | 1.6 | 3.2 | 0.00 | 1.88 | 1.88 | 99 | 1009.2 |
| 20260506134331 | 10 | 289 | 0.0 | 1.6 | 0.00 | 1.88 | 1.88 | 99 | 1008.9 |
| 20260506133828 | 10 | 294 | 4.8 | 8.0 | 0.13 | 1.88 | 1.88 | 99 | 1008.9 |
| 20260506133324 | 10 | 0 | 9.7 | 14.5 | 0.13 | 1.88 | 1.88 | 99 | 1008.7 |
| 20260506132821 | 10 | 334 | 4.8 | 8.0 | 0.00 | 1.85 | 1.85 | 99 | 1008.4 |
| 20260506132318 | 10 | 344 | 8.0 | 9.7 | 0.00 | 1.85 | 1.85 | 99 | 1008.4 |
| 20260506131816 | 11 | 348 | 12.9 | 16.1 | 0.00 | 1.85 | 1.85 | 99 | 1008.5 |
| 20260506131312 | 11 | 340 | 6.4 | 8.0 | 0.18 | 1.85 | 1.85 | 99 | 1008.4 |
| 20260506130809 | 13 | 336 | 11.3 | 12.9 | 0.18 | 1.85 | 1.85 | 99 | 1007.8 |
| 20260506130301 | 15 | 283 | 6.4 | 8.0 | 0.00 | 1.83 | 1.83 | 99 | 1007.6 |
| 20260506125759 | 15 | 256 | 3.2 | 4.8 | 0.00 | 1.83 | 1.83 | 99 | 1007.5 |
| 20260506125256 | 15 | 230 | 4.8 | 4.8 | 0.00 | 1.83 | 1.83 | 99 | 1007.4 |
| 20260506124755 | 15 | 255 | 0.0 | 1.6 | 0.00 | 1.83 | 1.83 | 99 | 1007.7 |
| 20260506124252 | 14 | 237 | 1.6 | 3.2 | 0.00 | 1.83 | 1.83 | 99 | 1007.5 |
| 20260506123749 | 14 | 215 | 8.0 | 11.3 | 0.00 | 1.83 | 1.83 | 99 | 1007.2 |
| 20260506123248 | 14 | 251 | 3.2 | 3.2 | 0.00 | 1.83 | 1.83 | 99 | 1007.3 |
| 20260506122744 | 14 | 226 | 4.8 | 8.0 | 0.00 | 1.83 | 1.83 | 99 | 1007.3 |
| 20260506122241 | 14 | 261 | 4.8 | 4.8 | 0.00 | 1.83 | 1.83 | 99 | 1007.1 |
| 20260506121739 | 14 | 247 | 0.0 | 1.6 | 0.00 | 1.83 | 1.83 | 99 | 1007.1 |
| 20260506121236 | 14 | 243 | 0.0 | 1.6 | 0.00 | 1.83 | 1.83 | 99 | 1007.2 |
| 20260506120733 | 14 | 233 | 4.8 | 4.8 | 0.00 | 1.83 | 1.83 | 99 | 1007.2 |
| 20260506120231 | 14 | 250 | 0.0 | 1.6 | 0.00 | 1.83 | 1.83 | 99 | 1006.9 |
| 20260506115728 | 14 | 216 | 0.0 | 1.6 | 0.00 | 1.83 | 1.83 | 99 | 1006.7 |
| 20260506115226 | 14 | 224 | 0.0 | 0.0 | 0.00 | 1.83 | 1.83 | 99 | 1006.8 |
| 20260506114724 | 14 | 213 | 0.0 | 0.0 | 0.00 | 1.83 | 1.83 | 99 | 1007.1 |
| 20260506114221 | 14 | 220 | 0.0 | 0.0 | 0.00 | 1.83 | 1.83 | 99 | 1007.1 |
| 20260506113720 | 14 | 246 | 1.6 | 1.6 | 0.00 | 1.83 | 1.83 | 99 | 1006.8 |
| 20260506113217 | 14 | 208 | 1.6 | 3.2 | 0.00 | 1.83 | 1.83 | 99 | 1006.8 |
| 20260506112713 | 14 | 244 | 1.6 | 3.2 | 0.00 | 1.83 | 1.83 | 99 | 1006.9 |
| 20260506112211 | 14 | 214 | 0.0 | 0.0 | 0.00 | 1.83 | 1.83 | 99 | 1006.9 |
| 20260506111708 | 14 | 211 | 0.0 | 0.0 | 0.00 | 1.83 | 1.83 | 99 | 1006.5 |
| 20260506111206 | 14 | 219 | 3.2 | 8.0 | 0.00 | 1.83 | 1.83 | 99 | 1006.9 |
| 20260506110703 | 14 | 223 | 1.6 | 4.8 | 0.00 | 1.83 | 1.83 | 99 | 1006.7 |
| 20260506110201 | 14 | 234 | 0.0 | 0.0 | 0.00 | 1.83 | 1.83 | 99 | 1006.7 |
| 20260506105657 | 13 | 232 | 0.0 | 0.0 | 0.00 | 1.83 | 1.83 | 99 | 1006.7 |
| 20260506105154 | 13 | 248 | 3.2 | 3.2 | 0.00 | 1.83 | 1.83 | 99 | 1006.7 |
| 20260506104652 | 13 | 214 | 4.8 | 8.0 | 0.00 | 1.83 | 1.83 | 99 | 1006.3 |
| 20260506104149 | 13 | 230 | 0.0 | 0.0 | 0.13 | 1.83 | 1.83 | 99 | 1006.5 |
| 20260506103646 | 13 | 228 | 0.0 | 1.6 | 0.13 | 1.83 | 1.83 | 99 | 1006.4 |
| 20260506103143 | 13 | 240 | 0.0 | 1.6 | 0.18 | 1.80 | 1.80 | 99 | 1006.6 |
| 20260506102642 | 13 | 197 | 3.2 | 4.8 | 0.18 | 1.80 | 1.80 | 99 | 1006.3 |
| 20260506102138 | 13 | 215 | 1.6 | 3.2 | 0.00 | 1.78 | 1.78 | 99 | 1006.5 |
| 20260506101635 | 13 | 210 | 1.6 | 4.8 | 0.00 | 1.78 | 1.78 | 99 | 1006.5 |
| 20260506101132 | 13 | 206 | 6.4 | 9.7 | 0.13 | 1.78 | 1.78 | 99 | 1006.3 |
| 20260506100631 | 13 | 244 | 0.0 | 1.6 | 0.30 | 1.78 | 1.78 | 99 | 1006.1 |
| 20260506100128 | 13 | 188 | 3.2 | 4.8 | 0.30 | 1.75 | 1.75 | 99 | 1006.4 |
| 20260506095627 | 13 | 180 | 3.2 | 4.8 | 0.13 | 1.73 | 1.73 | 99 | 1006.5 |
| 20260506095123 | 13 | 229 | 0.0 | 1.6 | 0.18 | 1.70 | 1.70 | 99 | 1006.4 |
| 20260506094621 | 13 | 222 | 0.0 | 0.0 | 0.18 | 1.70 | 1.70 | 99 | 1006.7 |
| 20260506094118 | 13 | 205 | 1.6 | 3.2 | 0.18 | 1.68 | 1.68 | 99 | 1006.8 |
| 20260506093617 | 13 | 200 | 1.6 | 1.6 | 0.30 | 1.68 | 1.68 | 99 | 1006.6 |
| 20260506093113 | 13 | 208 | 1.6 | 1.6 | 0.48 | 1.68 | 1.68 | 99 | 1006.7 |
| 20260506092611 | 13 | 224 | 0.0 | 0.0 | 0.30 | 1.63 | 1.63 | 99 | 1006.8 |
| 20260506092107 | 13 | 238 | 0.0 | 0.0 | 0.30 | 1.60 | 1.60 | 99 | 1006.9 |
| 20260506091606 | 13 | 215 | 0.0 | 0.0 | 0.18 | 1.57 | 1.57 | 99 | 1006.8 |
| 20260506091103 | 13 | 227 | 0.0 | 0.0 | 0.00 | 1.55 | 1.55 | 99 | 1006.9 |
| 20260506090601 | 13 | 225 | 0.0 | 0.0 | 0.13 | 1.55 | 1.55 | 99 | 1006.8 |
| 20260506090057 | 13 | 227 | 0.0 | 0.0 | 0.43 | 1.55 | 1.55 | 99 | 1006.8 |
| 20260506085554 | 13 | 225 | 0.0 | 0.0 | 0.61 | 1.52 | 1.52 | 99 | 1006.9 |
| 20260506085050 | 13 | 227 | 0.0 | 0.0 | 0.61 | 1.47 | 1.47 | 99 | 1006.8 |
| 20260506084547 | 13 | 226 | 0.0 | 0.0 | 0.48 | 1.42 | 1.42 | 99 | 1007.1 |
| 20260506084044 | 13 | 224 | 0.0 | 0.0 | 0.36 | 1.37 | 1.37 | 99 | 1006.9 |
| 20260506083541 | 13 | 260 | 0.0 | 0.0 | 0.48 | 1.35 | 1.35 | 99 | 1006.9 |
| 20260506083038 | 13 | 245 | 0.0 | 0.0 | 0.61 | 1.32 | 1.32 | 99 | 1006.8 |
| 20260506082535 | 13 | 225 | 0.0 | 0.0 | 0.61 | 1.27 | 1.27 | 99 | 1006.9 |
| 20260506082031 | 13 | 223 | 0.0 | 0.0 | 0.71 | 1.22 | 1.22 | 99 | 1006.7 |
| 20260506081529 | 14 | 225 | 1.6 | 1.6 | 0.89 | 1.17 | 1.17 | 99 | 1006.8 |
| 20260506081026 | 14 | 215 | 0.0 | 1.6 | 0.89 | 1.12 | 1.12 | 99 | 1006.6 |
| 20260506080524 | 14 | 230 | 1.6 | 1.6 | 1.27 | 1.04 | 1.04 | 99 | 1006.6 |
| 20260506073507 | 14 | 253 | 4.8 | 4.8 | 1.27 | 0.53 | 0.53 | 99 | 1007.3 |
| 20260506073004 | 15 | 226 | 11.3 | 12.9 | 1.50 | 0.46 | 0.46 | 98 | 1007.1 |
| 20260506072501 | 15 | 221 | 4.8 | 4.8 | 1.37 | 0.36 | 0.36 | 96 | 1007.5 |
| 20260506071959 | 15 | 260 | 11.3 | 16.1 | 0.61 | 0.20 | 0.20 | 94 | 1007.6 |
| 20260506071457 | 15 | 227 | 9.7 | 12.9 | 0.13 | 0.13 | 0.13 | 93 | 1007.3 |
| 20260506070954 | 15 | 238 | 9.7 | 11.3 | 0.00 | 0.10 | 0.10 | 93 | 1006.7 |
| 20260506070451 | 15 | 220 | 1.6 | 3.2 | 0.00 | 0.10 | 0.10 | 93 | 1006.7 |
| 20260506062428 | 15 | 242 | 1.6 | 3.2 | 0.00 | 0.05 | 0.05 | 99 | 1006.6 |
| 20260506061924 | 15 | 231 | 0.0 | 0.0 | 0.00 | 0.05 | 0.05 | 99 | 1006.4 |
| 20260506061420 | 14 | 220 | 0.0 | 0.0 | 0.00 | 0.05 | 0.05 | 99 | 1006.4 |
| 20260506060919 | 14 | 225 | 0.0 | 0.0 | 0.00 | 0.05 | 0.05 | 99 | 1006.4 |
| 20260506060416 | 14 | 251 | 0.0 | 0.0 | 0.00 | 0.05 | 0.05 | 99 | 1006.7 |